San Juan, PR

5:36 PM AST on April 28, 2017 (GMT -0400)
Luis Munoz Marin International

Weather History for TJSJ - November, 2013

Change the Weather History Date:

Thursday, November 21, 2013

  Actual Average Record
Temperature  
Mean Temperature 80 °F 80 °F  
Max Temperature 86 °F 85 °F 91 °F (2009)
Min Temperature 74 °F 75 °F 67 °F (1957)
Degree Days  
Heating Degree Days 0 0  
Month to date heating degree days 0 0  
Since 1 July heating degree days 0 0  
Cooling Degree Days 15 15  
Month to date cooling degree days 346 333  
Year to date cooling degree days 5440 5292  
Growing Degree Days 27 (Base 50)    
Moisture  
Dew Point 73 °F    
Average Humidity 86    
Maximum Humidity 97    
Minimum Humidity 74    
Precipitation  
Precipitation 1.21 in 0.21 in 1.84 in (1924)
Month to date precipitation 4.00 4.64  
Year to date precipitation 72.48 49.62  
Sea Level Pressure  
Sea Level Pressure 29.99 in    
Wind  
Wind Speed 9 mph (ENE)    
Max Wind Speed 20 mph    
Max Gust Speed 28 mph    
Visibility 9 miles    
Events Rain , Thunderstorm    
T = Trace of Precipitation, MM = Missing Value Source: NWS Daily Summary

Daily Weather History Graph

Daily Weather History Graph

Search for Another Location

Airport or City:

Trip Planner

Search our weather history database for the weather conditions in past years. The results will help you decide how hot, cold, wet, or windy it might be!

Date:

Astronomy

Nov. 21, 2013 Rise Set
Actual Time 6:33 AM AST 5:45 PM AST
Civil Twilight 6:10 AM AST 6:08 PM AST
Nautical Twilight 5:44 AM AST 6:35 PM AST
Astronomical Twilight 5:17 AM AST 7:01 PM AST
Moon 9:14 PM AST (11/21) 9:40 AM AST (11/21)
Length of Visible Light 11h 58m
Length of Day
11h 11m
Waning Gibbous, 85% of the Moon is Illuminated
Nov 21
Waning Gibbous
Nov 25
Last Quarter
Dec 2
New
Dec 9
First Quarter
Dec 17
Full

Hourly Weather History & Observations

Time (AST) Temp. Heat Index Dew Point Humidity Pressure Visibility Wind Dir Wind Speed Gust Speed Precip Events Conditions
12:56 AM 79.0 °F - 73.0 °F 82% 29.99 in 10.0 mi Calm Calm - 0.00 in   Mostly Cloudy
1:56 AM 77.0 °F - 73.0 °F 88% 29.98 in 10.0 mi Calm Calm - 0.05 in   Mostly Cloudy
2:56 AM 77.0 °F - 72.0 °F 84% 29.97 in 10.0 mi SE 3.5 mph - 0.21 in Rain Light Rain
3:56 AM 75.9 °F - 73.0 °F 91% 29.96 in 10.0 mi Variable 3.5 mph - 0.03 in Rain Rain
4:56 AM 77.0 °F - 73.0 °F 88% 29.97 in 10.0 mi SSW 3.5 mph - 0.01 in   Mostly Cloudy
5:56 AM 77.0 °F - 73.9 °F 90% 29.98 in 10.0 mi SSE 3.5 mph - 0.08 in Rain Light Rain
6:56 AM 75.9 °F - 73.9 °F 94% 30.01 in 7.0 mi Variable 4.6 mph - 0.05 in Rain Rain
7:19 AM 75.2 °F - 73.4 °F 94% 30.01 in 4.0 mi East 5.8 mph - 0.27 in Rain Rain
7:29 AM 75.2 °F - 73.4 °F 94% 30.01 in 10.0 mi ESE 4.6 mph - 0.28 in Rain Light Rain
7:56 AM 75.9 °F - 74.5 °F 95% 30.02 in 10.0 mi East 5.8 mph - 0.28 in   Mostly Cloudy
8:56 AM 78.1 °F - 77.0 °F 96% 30.03 in 10.0 mi East 12.7 mph - 0.00 in Rain Light Rain
9:56 AM 79.0 °F - 73.0 °F 82% 30.04 in 10.0 mi East 10.4 mph - 0.00 in   Mostly Cloudy
10:56 AM 80.1 °F 85.1 °F 75.0 °F 85% 30.03 in 10.0 mi ENE 15.0 mph - N/A   Mostly Cloudy
11:56 AM 81.0 °F 85.8 °F 73.0 °F 77% 30.01 in 10.0 mi East 13.8 mph - N/A   Mostly Cloudy
12:56 PM 81.0 °F 85.2 °F 72.0 °F 74% 29.99 in 10.0 mi NE 15.0 mph - N/A   Scattered Clouds
1:56 PM 79.0 °F - 73.0 °F 82% 29.97 in 10.0 mi East 10.4 mph - N/A   Mostly Cloudy
2:56 PM 80.1 °F 83.8 °F 72.0 °F 76% 29.97 in 10.0 mi ENE 12.7 mph - N/A   Scattered Clouds
3:56 PM 81.0 °F 84.9 °F 71.1 °F 72% 29.96 in 10.0 mi ENE 11.5 mph - N/A   Scattered Clouds
4:56 PM 79.0 °F - 73.0 °F 82% 29.96 in 10.0 mi NNE 11.5 mph - N/A   Scattered Clouds
5:56 PM 77.0 °F - 73.9 °F 90% 29.97 in 3.0 mi NNE 8.1 mph - 0.09 in Rain Rain
6:02 PM 75.2 °F - 73.4 °F 94% 29.97 in 3.0 mi NNE 11.5 mph - 0.02 in Rain Light Rain
6:56 PM 75.9 °F - 73.9 °F 94% 29.97 in 10.0 mi ENE 3.5 mph - 0.12 in Thunderstorm Thunderstorm
7:56 PM 77.0 °F - 75.0 °F 94% 30.00 in 10.0 mi East 4.6 mph - 0.02 in Rain , Thunderstorm Light Thunderstorms and Rain
8:56 PM 77.0 °F - 73.9 °F 90% 30.01 in 10.0 mi NNE 10.4 mph - 0.01 in   Overcast
9:56 PM 76.3 °F - 75.6 °F 98% 30.00 in 10.0 mi NE 12.7 mph 21.9 mph 0.26 in   Overcast
10:56 PM 75.0 °F - 72.0 °F 90% 30.01 in 10.0 mi NE 18.4 mph - N/A   Mostly Cloudy
11:56 PM 75.0 °F - 69.1 °F 82% 29.99 in 10.0 mi NE 9.2 mph - 0.00 in   Mostly Cloudy